SCOUT A DEB, 2778

Orbit data source: Space-Track

SCOUT A DEB, 2778 is space debris in LEO originally from a launch on Fri, 14 Apr 1967 UTC launched from the Air Force Western Test Range (AFWTR). Debris objects in space refer to the collection of defunct objects orbiting the Earth. Examples of debris include non-operational satellites, rocket bodies, and fragments generated from explosions, collisions, or faulty payload assembly.

Loading next visibility...
SCOUT A DEB details
Identifier
2778, 1967-034D
Orbit
LEO
Last TLE update9 hours ago
Origin
Flag of USUSN NAVAIR (US)
ManufacturerUnknown
MissionSpacecraft
Bus & MotorUnknown
MassUnknown
Launch date (UTC)
1967-04-14 (58 years ago)
Launch vehicleUnknown
Launch site
Air Force Western Test Range (AFWTR)
Object type
Payload
Rocket body
Debris
Shape & HBRUnknown
Radar Cross SectionSmall (<0.1 m²)

Expand to show TLE details & history

TLE from 9 hours ago
0 SCOUT A DEB
1 02778U 67034D   24356.90148781  .00000349  00000-0  64360-3 0  9990
2 02778  89.8301  46.0271 0124860  83.2632 327.3311 13.34955554800798
Epoch: 2024-12-21T21:38Z
Definitive object data (Epoch: 2024-12-21T21:38:08.546Z)
Latitude49.90543°
Longitude-9.25374°
Altitude1,057.556 km
Speed7.366 km/s
True Right ascension03h 04m 54s
True Declination49° 44' 34"
Sunlit
Object was in full shadow at TLE epoch
Visualization TLE readout
Latitude10.60242°
Longitude-9.42898°
Altitude1,099.638 km
Speed7.318 km/s
Apparent Right ascension00h 22m 03s
Apparent Declination-30° 58' 02"
Sunlit
Object is in full shadow
Visualization observer readout
Local Sidereal Time05:30:59
Azimuth238.312° WSW
Elevation-10.651°
Doppler factor1
Orbital elements
Apogee altitude1,218.887 km
Perigee altitude1,031.514 km
Semi-major axis7,503.338 km
Eccentricity0.012486
Inclination89.8301°
RAAN46.0271°
Arg. of periapsis83.2632°
True anomaly326.54853°
Mean anomaly327.3311°
Eccentric anomaly326.94085°
Mean motion3.33935 °/min
BSTAR0.0006436
Orbital period107.81 mins
Loading maneuver chart data...
Loading historical data...
Loading historical data...
Loading historical data...
Loading historical data...
Loading historical data...
Loading historical data...
Loading historical data...

SCOUT A DEB Visibility forecast

Observer location: undefined°, undefined

Span
Click to sort rows by Start time (UTC) header in descending order
Start Az.
Max El. time (UTC)
Max El. Az.
Max El.
End time (UTC)
End Az.
6 mins2024-12-22 14:12:14.019Z45.807° ENE2024-12-22 14:15:14.019Z74.002° E14.427°2024-12-22 14:18:14.019Z102.916° ESE
11 mins2024-12-22 15:59:14.019Z358.718° N2024-12-22 16:04:14.019Z233.263° WSW44.398°2024-12-22 16:10:14.019Z188.305° SSW
6 mins2024-12-23 02:20:14.019Z100.916° ESE2024-12-23 02:23:14.019Z70.114° E16.432°2024-12-23 02:26:14.019Z39.962° NE
11 mins2024-12-23 04:05:14.019Z187.474° SSW2024-12-23 04:10:14.019Z283.787° WNW43.449°2024-12-23 04:16:14.019Z353.528° N
|